Time,TemperatureF,DewpointF,PressureIn,WindDirection,WindDirectionDegrees,WindSpeedMPH,WindSpeedGustMPH,Humidity,HourlyPrecipIn,Conditions,Clouds,dailyrainin,SolarRadiationWatts/m^2,SoftwareType,DateUTC
2013-04-23 00:01:00,30.4,20.7,30.61,ESE,108,7.0,7.0,67,0.00,CLR,FEW,0.00,0.0,WeatherDisplay:10.37,2013-04-23 04:01:00,
2013-04-23 00:02:00,30.3,20.6,30.61,East,85,6.9,6.9,67,0.00,CLR,FEW,0.00,0.0,WeatherDisplay:10.37,2013-04-23 04:02:00,
2013-04-23 00:03:00,30.3,20.6,30.61,SE,144,8.1,8.1,67,0.00,CLR,FEW,0.00,0.0,WeatherDisplay:10.37,2013-04-23 04:03:00,
2013-04-23 00:06:00,30.2,20.6,30.61,SE,129,5.0,12.0,67,0.00,CLR,FEW,0.00,0.0,WeatherDisplay:10.37,2013-04-23 04:06:00,
2013-04-23 00:11:00,30.0,20.7,30.61,SE,134,7.0,7.0,68,0.00,CLR,FEW,0.00,0.0,WeatherDisplay:10.37,2013-04-23 04:11:00,
2013-04-23 00:16:00,30.0,20.7,30.61,SE,125,7.0,7.0,68,0.00,CLR,FEW,0.00,0.0,WeatherDisplay:10.37,2013-04-23 04:16:00,
2013-04-23 00:21:00,29.9,20.6,30.61,ESE,113,10.4,10.4,68,0.00,CLR,FEW,0.00,0.0,WeatherDisplay:10.37,2013-04-23 04:21:00,
2013-04-23 00:26:00,29.8,20.9,30.61,ESE,119,7.0,7.0,69,0.00,CLR,FEW,0.00,0.0,WeatherDisplay:10.37,2013-04-23 04:26:00,
2013-04-23 00:31:00,29.6,20.7,30.61,SE,126,4.6,4.6,69,0.00,CLR,FEW,0.00,0.0,WeatherDisplay:10.37,2013-04-23 04:31:00,
2013-04-23 00:36:00,29.5,20.6,30.60,ESE,105,7.0,7.0,69,0.00,CLR,FEW,0.00,0.0,WeatherDisplay:10.37,2013-04-23 04:36:00,
2013-04-23 00:41:00,29.5,20.9,30.60,ESE,115,8.1,8.1,70,0.00,CLR,FEW,0.00,0.0,WeatherDisplay:10.37,2013-04-23 04:41:00,
2013-04-23 00:46:00,29.4,21.2,30.60,SE,130,11.5,11.5,71,0.00,CLR,FEW,0.00,0.0,WeatherDisplay:10.37,2013-04-23 04:46:00,
2013-04-23 00:51:00,29.3,21.1,30.60,East,101,7.0,7.0,71,0.00,CLR,FEW,0.00,0.0,WeatherDisplay:10.37,2013-04-23 04:51:00,
2013-04-23 00:56:00,29.3,21.4,30.60,ESE,121,11.0,11.0,72,0.00,CLR,FEW,0.00,0.0,WeatherDisplay:10.37,2013-04-23 04:56:00,
2013-04-23 01:01:00,29.2,21.3,30.60,East,98,11.5,11.5,72,0.00,CLR,FEW,0.00,0.0,WeatherDisplay:10.37,2013-04-23 05:01:00,
2013-04-23 01:06:00,29.2,21.3,30.59,ESE,107,8.1,8.1,72,0.00,CLR,FEW,0.00,0.0,WeatherDisplay:10.37,2013-04-23 05:06:00,
2013-04-23 01:11:00,28.9,21.3,30.59,SE,128,10.4,10.4,73,0.00,CLR,FEW,0.00,0.0,WeatherDisplay:10.37,2013-04-23 05:11:00,
2013-04-23 01:16:00,28.9,21.3,30.59,SE,132,10.4,10.4,73,0.00,CLR,FEW,0.00,0.0,WeatherDisplay:10.37,2013-04-23 05:16:00,
2013-04-23 01:21:00,28.9,21.3,30.59,East,99,9.0,9.0,73,0.00,CLR,FEW,0.00,0.0,WeatherDisplay:10.37,2013-04-23 05:21:00,
2013-04-23 01:26:00,28.8,21.6,30.59,ESE,116,11.0,11.0,74,0.00,CLR,FEW,0.00,0.0,WeatherDisplay:10.37,2013-04-23 05:26:00,
2013-04-23 01:31:00,28.8,21.6,30.58,ESE,109,9.2,9.2,74,0.00,CLR,FEW,0.00,0.0,WeatherDisplay:10.37,2013-04-23 05:31:00,
2013-04-23 01:36:00,28.7,21.8,30.58,ESE,123,13.0,13.0,75,0.00,CLR,FEW,0.00,0.0,WeatherDisplay:10.37,2013-04-23 05:36:00,
2013-04-23 01:41:00,28.8,21.9,30.58,ESE,111,13.0,13.0,75,0.00,CLR,FEW,0.00,0.0,WeatherDisplay:10.37,2013-04-23 05:41:00,
2013-04-23 01:46:00,28.8,21.9,30.58,ESE,107,9.2,9.2,75,0.00,CLR,FEW,0.00,0.0,WeatherDisplay:10.37,2013-04-23 05:46:00,
2013-04-23 01:51:00,28.7,21.8,30.58,East,83,11.5,11.5,75,0.00,CLR,FEW,0.00,0.0,WeatherDisplay:10.37,2013-04-23 05:51:00,
2013-04-23 01:56:00,28.7,22.1,30.57,SSE,159,10.4,10.4,76,0.00,CLR,FEW,0.00,0.0,WeatherDisplay:10.37,2013-04-23 05:56:00,
2013-04-23 02:01:00,28.7,22.1,30.58,East,93,8.1,8.1,76,0.00,CLR,FEW,0.00,0.0,WeatherDisplay:10.37,2013-04-23 06:01:00,
2013-04-23 02:06:00,28.6,22.0,30.58,ESE,105,14.0,14.0,76,0.00,CLR,FEW,0.00,0.0,WeatherDisplay:10.37,2013-04-23 06:06:00,
2013-04-23 02:11:00,28.6,22.3,30.57,SSE,149,13.0,13.0,77,0.00,CLR,FEW,0.00,0.0,WeatherDisplay:10.37,2013-04-23 06:11:00,
2013-04-23 02:16:00,28.6,22.3,30.57,SE,140,7.0,7.0,77,0.00,CLR,FEW,0.00,0.0,WeatherDisplay:10.37,2013-04-23 06:16:00,
2013-04-23 02:21:00,28.5,22.2,30.57,ESE,106,13.0,13.0,77,0.00,CLR,FEW,0.00,0.0,WeatherDisplay:10.37,2013-04-23 06:21:00,
2013-04-23 02:26:00,28.4,22.1,30.57,SSE,154,13.8,13.8,77,0.00,CLR,FEW,0.00,0.0,WeatherDisplay:10.37,2013-04-23 06:26:00,
2013-04-23 02:31:00,28.3,22.3,30.57,SSE,148,8.1,8.1,78,0.00,CLR,FEW,0.00,0.0,WeatherDisplay:10.37,2013-04-23 06:31:00,
2013-04-23 02:36:00,28.2,22.5,30.57,ESE,115,12.0,12.0,79,0.00,CLR,FEW,0.00,0.0,WeatherDisplay:10.37,2013-04-23 06:36:00,
2013-04-23 02:41:00,28.3,22.6,30.57,ESE,111,11.5,11.5,79,0.00,CLR,FEW,0.00,0.0,WeatherDisplay:10.37,2013-04-23 06:41:00,
2013-04-23 02:46:00,28.2,22.5,30.56,ESE,120,9.2,9.2,79,0.00,CLR,FEW,0.00,0.0,WeatherDisplay:10.37,2013-04-23 06:46:00,
2013-04-23 02:51:00,28.0,22.3,30.56,ESE,109,11.5,11.5,79,0.00,CLR,FEW,0.00,0.0,WeatherDisplay:10.37,2013-04-23 06:51:00,
2013-04-23 02:56:00,27.9,21.9,30.56,SSW,207,7.0,7.0,78,0.00,CLR,FEW,0.00,0.0,WeatherDisplay:10.37,2013-04-23 06:56:00,
2013-04-23 03:01:00,27.9,21.9,30.55,South,169,9.2,9.2,78,0.00,CLR,FEW,0.00,0.0,WeatherDisplay:10.37,2013-04-23 07:01:00,
2013-04-23 03:06:00,27.9,21.6,30.55,ESE,105,10.4,10.4,77,0.00,CLR,FEW,0.00,0.0,WeatherDisplay:10.37,2013-04-23 07:06:00,
2013-04-23 03:11:00,28.0,21.4,30.55,East,94,5.0,5.0,76,0.00,CLR,FEW,0.00,0.0,WeatherDisplay:10.37,2013-04-23 07:11:00,
2013-04-23 03:16:00,27.9,21.0,30.55,SE,127,6.0,6.0,75,0.00,CLR,FEW,0.00,0.0,WeatherDisplay:10.37,2013-04-23 07:16:00,
2013-04-23 03:21:00,27.9,20.7,30.55,SE,127,7.0,7.0,74,0.00,CLR,FEW,0.00,0.0,WeatherDisplay:10.37,2013-04-23 07:21:00,
2013-04-23 03:26:00,28.0,20.1,30.54,ESE,107,9.2,9.2,72,0.00,CLR,FEW,0.00,0.0,WeatherDisplay:10.37,2013-04-23 07:26:00,
2013-04-23 03:31:00,28.0,20.1,30.54,East,98,8.1,8.1,72,0.00,CLR,FEW,0.00,0.0,WeatherDisplay:10.37,2013-04-23 07:31:00,
2013-04-23 03:36:00,28.0,19.8,30.54,SE,128,5.8,5.8,71,0.00,CLR,FEW,0.00,0.0,WeatherDisplay:10.37,2013-04-23 07:36:00,
2013-04-23 03:41:00,28.1,19.2,30.54,SE,146,12.0,12.0,69,0.00,CLR,FEW,0.00,0.0,WeatherDisplay:10.37,2013-04-23 07:41:00,
2013-04-23 03:46:00,28.1,19.2,30.54,East,86,10.4,10.4,69,0.00,CLR,FEW,0.00,0.0,WeatherDisplay:10.37,2013-04-23 07:46:00,
2013-04-23 03:51:00,28.0,19.1,30.53,SE,133,10.4,10.4,69,0.00,CLR,FEW,0.00,0.0,WeatherDisplay:10.37,2013-04-23 07:51:00,
2013-04-23 03:56:00,28.1,19.2,30.53,ESE,105,6.0,6.0,69,0.00,CLR,FEW,0.00,0.0,WeatherDisplay:10.37,2013-04-23 07:56:00,
2013-04-23 04:01:00,28.1,18.9,30.53,ESE,118,5.8,5.8,68,0.00,CLR,FEW,0.00,0.0,WeatherDisplay:10.37,2013-04-23 08:01:00,
2013-04-23 04:06:00,28.0,18.1,30.53,ESE,117,7.0,7.0,66,0.00,CLR,FEW,0.00,0.0,WeatherDisplay:10.37,2013-04-23 08:06:00,
2013-04-23 04:11:00,27.9,18.0,30.53,SE,130,7.0,7.0,66,0.00,CLR,FEW,0.00,0.0,WeatherDisplay:10.37,2013-04-23 08:11:00,
2013-04-23 04:16:00,27.9,17.6,30.53,SE,128,10.4,10.4,65,0.00,CLR,FEW,0.00,0.0,WeatherDisplay:10.37,2013-04-23 08:16:00,
2013-04-23 04:21:00,27.8,18.3,30.53,SSE,157,10.4,10.4,67,0.00,CLR,FEW,0.00,0.0,WeatherDisplay:10.37,2013-04-23 08:21:00,
2013-04-23 04:26:00,27.8,17.9,30.52,ESE,108,12.0,12.0,66,0.00,CLR,FEW,0.00,0.0,WeatherDisplay:10.37,2013-04-23 08:26:00,
2013-04-23 04:31:00,27.7,18.2,30.52,SE,125,10.0,10.0,67,0.00,CLR,FEW,0.00,0.0,WeatherDisplay:10.37,2013-04-23 08:31:00,
2013-04-23 04:36:00,27.7,17.8,30.52,ESE,117,10.4,10.4,66,0.00,CLR,FEW,0.00,0.0,WeatherDisplay:10.37,2013-04-23 08:36:00,
2013-04-23 04:41:00,27.7,17.8,30.52,ESE,121,8.1,8.1,66,0.00,CLR,FEW,0.00,0.0,WeatherDisplay:10.37,2013-04-23 08:41:00,
2013-04-23 04:46:00,27.3,18.8,30.52,SSE,157,8.1,8.1,70,0.00,CLR,FEW,0.00,0.0,WeatherDisplay:10.37,2013-04-23 08:46:00,
2013-04-23 04:51:00,27.2,18.7,30.52,SSE,151,11.0,11.0,70,0.00,CLR,FEW,0.00,0.0,WeatherDisplay:10.37,2013-04-23 08:51:00,
2013-04-23 04:56:00,27.1,18.9,30.52,SSE,157,10.4,10.4,71,0.00,CLR,FEW,0.00,0.0,WeatherDisplay:10.37,2013-04-23 08:56:00,
2013-04-23 05:01:00,27.1,19.3,30.52,SE,142,9.2,9.2,72,0.00,CLR,FEW,0.00,0.0,WeatherDisplay:10.37,2013-04-23 09:01:00,
2013-04-23 05:06:00,26.9,19.1,30.52,SE,140,10.4,10.4,72,0.00,CLR,FEW,0.00,0.0,WeatherDisplay:10.37,2013-04-23 09:06:00,
2013-04-23 05:11:00,26.9,19.1,30.52,SE,136,11.0,11.0,72,0.00,CLR,FEW,0.00,0.0,WeatherDisplay:10.37,2013-04-23 09:11:00,
2013-04-23 05:16:00,26.9,18.4,30.52,SSE,154,11.5,11.5,70,0.00,CLR,FEW,0.00,0.0,WeatherDisplay:10.37,2013-04-23 09:16:00,
2013-04-23 05:21:00,26.8,18.7,30.52,SSE,151,12.0,12.0,71,0.00,CLR,FEW,0.00,0.0,WeatherDisplay:10.37,2013-04-23 09:21:00,
2013-04-23 05:26:00,26.7,18.6,30.52,ESE,107,7.0,7.0,71,0.00,CLR,FEW,0.00,0.0,WeatherDisplay:10.37,2013-04-23 09:26:00,
2013-04-23 05:31:00,26.5,18.7,30.52,SE,128,8.1,8.1,72,0.00,CLR,FEW,0.00,0.0,WeatherDisplay:10.37,2013-04-23 09:31:00,
2013-04-23 05:36:00,26.3,18.2,30.52,SSE,151,9.2,9.2,71,0.00,CLR,FEW,0.00,0.0,WeatherDisplay:10.37,2013-04-23 09:36:00,
2013-04-23 05:41:00,26.1,18.0,30.52,SE,136,5.8,5.8,71,0.00,CLR,FEW,0.00,0.0,WeatherDisplay:10.37,2013-04-23 09:41:00,
2013-04-23 05:46:00,26.0,17.6,30.52,ESE,106,6.0,6.0,70,0.00,CLR,FEW,0.00,0.0,WeatherDisplay:10.37,2013-04-23 09:46:00,
2013-04-23 05:51:00,26.0,17.2,30.52,East,99,6.0,6.0,69,0.00,CLR,FEW,0.00,5.0,WeatherDisplay:10.37,2013-04-23 09:51:00,
2013-04-23 05:56:00,26.0,17.2,30.51,South,169,6.0,6.0,69,0.00,CLR,FEW,0.00,9.0,WeatherDisplay:10.37,2013-04-23 09:56:00,
2013-04-23 06:01:00,26.0,17.2,30.52,SSE,153,5.0,5.0,69,0.00,CLR,FEW,0.00,12.0,WeatherDisplay:10.37,2013-04-23 10:01:00,
2013-04-23 06:06:00,26.1,17.0,30.52,SE,146,6.0,6.0,68,0.00,CLR,FEW,0.00,16.0,WeatherDisplay:10.37,2013-04-23 10:06:00,
2013-04-23 06:11:00,26.2,17.1,30.52,SE,142,4.0,4.0,68,0.00,CLR,FEW,0.00,19.0,WeatherDisplay:10.37,2013-04-23 10:11:00,
2013-04-23 06:16:00,26.2,17.1,30.52,SSE,156,7.0,7.0,68,0.00,CLR,FEW,0.00,21.0,WeatherDisplay:10.37,2013-04-23 10:16:00,
2013-04-23 06:21:00,26.4,16.9,30.52,SE,127,7.0,7.0,67,0.00,CLR,FEW,0.00,26.0,WeatherDisplay:10.37,2013-04-23 10:21:00,
2013-04-23 06:26:00,26.5,16.7,30.52,SSE,156,9.2,9.2,66,0.00,CLR,FEW,0.00,33.0,WeatherDisplay:10.37,2013-04-23 10:26:00,
2013-04-23 06:31:00,26.6,16.8,30.52,SE,145,6.0,6.0,66,0.00,CLR,FEW,0.00,51.0,WeatherDisplay:10.37,2013-04-23 10:31:00,
2013-04-23 06:36:00,26.8,17.0,30.51,ESE,112,9.2,9.2,66,0.00,CLR,FEW,0.00,62.0,WeatherDisplay:10.37,2013-04-23 10:36:00,
2013-04-23 06:41:00,27.0,17.1,30.51,ESE,105,13.0,13.0,66,0.00,CLR,FEW,0.00,77.0,WeatherDisplay:10.37,2013-04-23 10:41:00,
2013-04-23 06:46:00,27.1,16.9,30.51,East,92,9.0,9.0,65,0.00,CLR,FEW,0.00,91.0,WeatherDisplay:10.37,2013-04-23 10:46:00,
2013-04-23 06:51:00,27.3,16.7,30.51,East,95,10.4,10.4,64,0.00,CLR,FEW,0.00,109.0,WeatherDisplay:10.37,2013-04-23 10:51:00,
2013-04-23 06:56:00,27.4,17.2,30.51,SE,124,5.0,5.0,65,0.00,CLR,FEW,0.00,127.0,WeatherDisplay:10.37,2013-04-23 10:56:00,
2013-04-23 07:01:00,27.6,17.0,30.51,SE,142,9.2,9.2,64,0.00,CLR,FEW,0.00,139.0,WeatherDisplay:10.37,2013-04-23 11:01:00,
2013-04-23 07:06:00,27.8,17.2,30.51,ESE,113,7.0,7.0,64,0.00,CLR,FEW,0.00,151.0,WeatherDisplay:10.37,2013-04-23 11:06:00,
2013-04-23 07:11:00,28.2,17.2,30.51,SSE,150,10.4,10.4,63,0.00,CLR,FEW,0.00,171.0,WeatherDisplay:10.37,2013-04-23 11:11:00,
2013-04-23 07:16:00,28.3,16.6,30.51,SSE,155,7.0,7.0,61,0.00,CLR,FEW,0.00,188.0,WeatherDisplay:10.37,2013-04-23 11:16:00,
2013-04-23 07:21:00,28.4,16.7,30.51,ESE,112,11.5,11.5,61,0.00,CLR,FEW,0.00,202.0,WeatherDisplay:10.37,2013-04-23 11:21:00,
2013-04-23 07:26:00,28.8,17.0,30.51,SSE,158,9.2,9.2,61,0.00,CLR,FEW,0.00,221.0,WeatherDisplay:10.37,2013-04-23 11:26:00,
2013-04-23 07:31:00,28.9,17.5,30.51,SE,133,11.5,11.5,62,0.00,CLR,FEW,0.00,236.0,WeatherDisplay:10.37,2013-04-23 11:31:00,
2013-04-23 07:36:00,29.0,17.6,30.51,SSE,157,9.2,9.2,62,0.00,CLR,FEW,0.00,253.0,WeatherDisplay:10.37,2013-04-23 11:36:00,
2013-04-23 07:41:00,29.0,17.6,30.51,ESE,121,12.0,12.0,62,0.00,CLR,FEW,0.00,269.0,WeatherDisplay:10.37,2013-04-23 11:41:00,
2013-04-23 07:46:00,29.5,18.8,30.51,East,97,12.0,12.0,64,0.00,CLR,FEW,0.00,288.0,WeatherDisplay:10.37,2013-04-23 11:46:00,
2013-04-23 07:51:00,29.8,18.7,30.51,SSE,159,10.0,10.0,63,0.00,CLR,FEW,0.00,309.0,WeatherDisplay:10.37,2013-04-23 11:51:00,
2013-04-23 07:56:00,30.0,19.3,30.51,SE,131,10.4,10.4,64,0.00,CLR,FEW,0.00,323.0,WeatherDisplay:10.37,2013-04-23 11:56:00,
2013-04-23 08:01:00,30.2,18.7,30.51,South,170,11.5,11.5,62,0.00,CLR,FEW,0.00,341.0,WeatherDisplay:10.37,2013-04-23 12:01:00,
2013-04-23 08:06:00,30.3,18.8,30.51,SSE,160,10.4,10.4,62,0.00,CLR,FEW,0.00,360.0,WeatherDisplay:10.37,2013-04-23 12:06:00,
2013-04-23 08:11:00,30.3,19.2,30.51,ESE,115,6.0,6.0,63,0.00,CLR,FEW,0.00,383.0,WeatherDisplay:10.37,2013-04-23 12:11:00,
2013-04-23 08:16:00,30.5,19.0,30.51,SSE,150,9.2,9.2,62,0.00,CLR,FEW,0.00,399.0,WeatherDisplay:10.37,2013-04-23 12:16:00,
2013-04-23 08:21:00,30.5,19.0,30.51,SSE,147,11.5,11.5,62,0.00,CLR,FEW,0.00,417.0,WeatherDisplay:10.37,2013-04-23 12:21:00,
2013-04-23 08:26:00,30.7,19.2,30.50,ESE,118,10.4,10.4,62,0.00,CLR,FEW,0.00,431.0,WeatherDisplay:10.37,2013-04-23 12:26:00,
2013-04-23 08:31:00,31.2,19.3,30.50,SSE,159,9.2,9.2,61,0.00,CLR,FEW,0.00,452.0,WeatherDisplay:10.37,2013-04-23 12:31:00,
2013-04-23 08:36:00,31.4,19.5,30.50,ESE,121,10.4,10.4,61,0.00,CLR,FEW,0.00,466.0,WeatherDisplay:10.37,2013-04-23 12:36:00,
2013-04-23 08:41:00,31.9,20.0,30.50,SE,136,11.5,11.5,61,0.00,CLR,FEW,0.00,483.0,WeatherDisplay:10.37,2013-04-23 12:41:00,
2013-04-23 08:46:00,32.2,19.5,30.50,SSE,153,7.0,7.0,59,0.00,CLR,FEW,0.00,501.0,WeatherDisplay:10.37,2013-04-23 12:46:00,
2013-04-23 08:51:00,32.4,19.3,30.50,SSE,157,10.4,10.4,58,0.00,CLR,FEW,0.00,519.0,WeatherDisplay:10.37,2013-04-23 12:51:00,
2013-04-23 08:56:00,32.8,21.2,30.50,ESE,110,7.0,7.0,62,0.00,CLR,FEW,0.00,536.0,WeatherDisplay:10.37,2013-04-23 12:56:00,
2013-04-23 09:01:00,33.0,20.2,30.50,SE,134,11.5,11.5,59,0.00,CLR,FEW,0.00,554.0,WeatherDisplay:10.37,2013-04-23 13:01:00,
2013-04-23 09:06:00,33.1,20.3,30.49,SE,130,7.0,7.0,59,0.00,CLR,FEW,0.00,568.0,WeatherDisplay:10.37,2013-04-23 13:06:00,
2013-04-23 09:11:00,33.3,20.5,30.49,SSE,157,6.0,6.0,59,0.00,CLR,FEW,0.00,589.0,WeatherDisplay:10.37,2013-04-23 13:11:00,
2013-04-23 09:16:00,33.4,21.0,30.49,ESE,122,8.0,8.0,60,0.00,CLR,FEW,0.00,599.0,WeatherDisplay:10.37,2013-04-23 13:16:00,
2013-04-23 09:21:00,33.6,20.4,30.48,ESE,102,6.0,6.0,58,0.00,CLR,FEW,0.00,615.0,WeatherDisplay:10.37,2013-04-23 13:21:00,
2013-04-23 09:26:00,33.8,21.4,30.49,ESE,117,6.0,6.0,60,0.00,CLR,FEW,0.00,629.0,WeatherDisplay:10.37,2013-04-23 13:26:00,
2013-04-23 09:31:00,34.4,21.9,30.49,ESE,104,10.0,10.0,60,0.00,CLR,FEW,0.00,649.0,WeatherDisplay:10.37,2013-04-23 13:31:00,
2013-04-23 09:37:00,35.0,22.9,30.48,South,170,6.0,6.0,61,0.00,CLR,FEW,0.00,663.0,WeatherDisplay:10.37,2013-04-23 13:37:00,
2013-04-23 09:42:00,35.0,20.9,30.48,East,90,11.5,11.5,56,0.00,CLR,FEW,0.00,684.0,WeatherDisplay:10.37,2013-04-23 13:42:00,
2013-04-23 09:47:00,35.6,22.7,30.47,SE,140,7.0,7.0,59,0.00,CLR,FEW,0.00,694.0,WeatherDisplay:10.37,2013-04-23 13:47:00,
2013-04-23 09:52:00,36.2,21.6,30.47,SE,137,6.9,6.9,55,0.00,CLR,FEW,0.00,710.0,WeatherDisplay:10.37,2013-04-23 13:52:00,
2013-04-23 09:57:00,35.8,22.0,30.47,SSE,157,10.0,10.0,57,0.00,CLR,FEW,0.00,722.0,WeatherDisplay:10.37,2013-04-23 13:57:00,
2013-04-23 10:02:00,35.8,22.0,30.47,ESE,118,12.0,12.0,57,0.00,CLR,FEW,0.00,738.0,WeatherDisplay:10.37,2013-04-23 14:02:00,
2013-04-23 10:07:00,36.3,22.5,30.47,ESE,108,6.0,6.0,57,0.00,CLR,FEW,0.00,749.0,WeatherDisplay:10.37,2013-04-23 14:07:00,
2013-04-23 10:12:00,36.9,22.7,30.46,ESE,122,10.4,10.4,56,0.00,CLR,FEW,0.00,766.0,WeatherDisplay:10.37,2013-04-23 14:12:00,
2013-04-23 10:17:00,37.3,22.6,30.46,SE,138,7.0,7.0,55,0.00,CLR,FEW,0.00,779.0,WeatherDisplay:10.37,2013-04-23 14:17:00,
2013-04-23 10:22:00,37.4,23.1,30.46,SE,144,6.0,6.0,56,0.00,CLR,FEW,0.00,791.0,WeatherDisplay:10.37,2013-04-23 14:22:00,
2013-04-23 10:27:00,37.8,22.6,30.46,SE,140,7.0,7.0,54,0.00,CLR,FEW,0.00,802.0,WeatherDisplay:10.37,2013-04-23 14:27:00,
2013-04-23 10:32:00,37.9,22.7,30.46,East,82,10.4,10.4,54,0.00,CLR,FEW,0.00,814.0,WeatherDisplay:10.37,2013-04-23 14:32:00,
2013-04-23 10:37:00,38.3,22.6,30.45,ESE,121,10.4,10.4,53,0.00,CLR,FEW,0.00,828.0,WeatherDisplay:10.37,2013-04-23 14:37:00,
2013-04-23 10:42:00,38.4,23.6,30.45,East,97,10.4,10.4,55,0.00,CLR,FEW,0.00,840.0,WeatherDisplay:10.37,2013-04-23 14:42:00,
2013-04-23 10:47:00,38.4,23.6,30.45,ESE,116,7.0,7.0,55,0.00,CLR,FEW,0.00,853.0,WeatherDisplay:10.37,2013-04-23 14:47:00,
2013-04-23 10:52:00,38.6,22.5,30.45,East,94,11.5,11.5,52,0.00,CLR,FEW,0.00,849.0,WeatherDisplay:10.37,2013-04-23 14:52:00,
2013-04-23 10:57:00,38.8,23.1,30.45,South,171,7.0,7.0,53,0.00,CLR,FEW,0.00,872.0,WeatherDisplay:10.37,2013-04-23 14:57:00,
2013-04-23 11:02:00,39.3,23.1,30.45,East,93,10.4,10.4,52,0.00,BKN,FEW,0.00,888.0,WeatherDisplay:10.37,2013-04-23 15:02:00,
2013-04-23 11:07:00,39.5,22.4,30.44,ESE,107,10.4,10.4,50,0.00,BKN,FEW,0.00,891.0,WeatherDisplay:10.37,2013-04-23 15:07:00,
2013-04-23 11:12:00,39.9,23.2,30.43,ESE,122,11.5,11.5,51,0.00,BKN,FEW,0.00,904.0,WeatherDisplay:10.37,2013-04-23 15:12:00,
2013-04-23 11:17:00,40.5,23.3,30.43,ESE,113,9.2,9.2,50,0.00,BKN,FEW,0.00,919.0,WeatherDisplay:10.37,2013-04-23 15:17:00,
2013-04-23 11:22:00,40.8,23.6,30.43,East,100,9.0,9.0,50,0.00,BKN,FEW,0.00,905.0,WeatherDisplay:10.37,2013-04-23 15:22:00,
2013-04-23 11:27:00,41.3,23.6,30.42,SSE,153,11.5,11.5,49,0.00,BKN,FEW,0.00,953.0,WeatherDisplay:10.37,2013-04-23 15:27:00,
2013-04-23 11:32:00,41.3,24.0,30.42,SE,125,12.0,12.0,50,0.00,BKN,FEW,0.00,918.0,WeatherDisplay:10.37,2013-04-23 15:32:00,
2013-04-23 11:37:00,41.3,24.0,30.42,ESE,107,7.0,7.0,50,0.00,BKN,FEW,0.00,893.0,WeatherDisplay:10.37,2013-04-23 15:37:00,
2013-04-23 11:42:00,41.6,24.8,30.42,SSE,166,12.0,12.0,51,0.00,BKN,FEW,0.00,847.0,WeatherDisplay:10.37,2013-04-23 15:42:00,
2013-04-23 11:47:00,41.8,25.0,30.42,SE,137,13.0,13.0,51,0.00,BKN,FEW,0.00,874.0,WeatherDisplay:10.37,2013-04-23 15:47:00,
2013-04-23 11:52:00,42.0,26.5,30.42,SSE,154,10.4,10.4,54,0.00,BKN,FEW,0.00,875.0,WeatherDisplay:10.37,2013-04-23 15:52:00,
2013-04-23 11:57:00,43.0,25.6,30.42,SE,146,12.0,12.0,50,0.00,BKN,FEW,0.00,991.0,WeatherDisplay:10.37,2013-04-23 15:57:00,
2013-04-23 12:02:00,43.3,26.4,30.42,SSE,153,11.5,11.5,51,0.00,OVC,FEW,0.00,983.0,WeatherDisplay:10.37,2013-04-23 16:02:00,
2013-04-23 12:07:00,43.2,26.3,30.42,SSE,150,16.0,16.0,51,0.00,OVC,FEW,0.00,954.0,WeatherDisplay:10.37,2013-04-23 16:07:00,
2013-04-23 12:12:00,43.1,26.7,30.41,SE,129,10.4,10.4,52,0.00,OVC,FEW,0.00,874.0,WeatherDisplay:10.37,2013-04-23 16:12:00,
2013-04-23 12:17:00,43.1,27.1,30.41,SE,140,18.4,18.4,53,0.00,OVC,FEW,0.00,926.0,WeatherDisplay:10.37,2013-04-23 16:17:00,
2013-04-23 12:22:00,43.3,27.3,30.41,SSW,192,9.2,9.2,53,0.00,OVC,FEW,0.00,965.0,WeatherDisplay:10.37,2013-04-23 16:22:00,
2013-04-23 12:27:00,44.0,27.5,30.41,ESE,105,14.0,14.0,52,0.00,OVC,FEW,0.00,946.0,WeatherDisplay:10.37,2013-04-23 16:27:00,
2013-04-23 12:32:00,44.0,27.5,30.41,SE,124,13.0,13.0,52,0.00,OVC,FEW,0.00,1027.0,WeatherDisplay:10.37,2013-04-23 16:32:00,
2013-04-23 12:37:00,44.0,27.5,30.40,SE,128,17.0,17.0,52,0.00,OVC,FEW,0.00,937.0,WeatherDisplay:10.37,2013-04-23 16:37:00,
2013-04-23 12:42:00,44.0,28.4,30.40,SE,135,13.0,13.0,54,0.00,OVC,FEW,0.00,947.0,WeatherDisplay:10.37,2013-04-23 16:42:00,
2013-04-23 12:47:00,44.1,28.5,30.40,SE,129,10.4,10.4,54,0.00,OVC,FEW,0.00,1020.0,WeatherDisplay:10.37,2013-04-23 16:47:00,
2013-04-23 12:52:00,44.5,29.8,30.40,SSE,147,12.0,12.0,56,0.00,OVC,FEW,0.00,670.0,WeatherDisplay:10.37,2013-04-23 16:52:00,
2013-04-23 12:57:00,44.5,28.9,30.40,SE,125,11.5,11.5,54,0.00,OVC,FEW,0.00,1083.0,WeatherDisplay:10.37,2013-04-23 16:57:00,
2013-04-23 13:02:00,44.2,28.6,30.40,SSE,159,13.8,13.8,54,0.00,OVC,FEW,0.00,432.0,WeatherDisplay:10.37,2013-04-23 17:02:00,
2013-04-23 13:07:00,43.2,28.1,30.39,ESE,102,11.5,11.5,55,0.00,OVC,FEW,0.00,408.0,WeatherDisplay:10.37,2013-04-23 17:07:00,
2013-04-23 13:12:00,42.7,28.5,30.39,SSE,153,12.0,12.0,57,0.00,OVC,FEW,0.00,399.0,WeatherDisplay:10.37,2013-04-23 17:12:00,
2013-04-23 13:17:00,42.3,29.0,30.39,ESE,104,13.0,13.0,59,0.00,OVC,FEW,0.00,348.0,WeatherDisplay:10.37,2013-04-23 17:17:00,
2013-04-23 13:22:00,42.1,29.6,30.39,SE,138,8.1,8.1,61,0.00,OVC,FEW,0.00,403.0,WeatherDisplay:10.37,2013-04-23 17:22:00,
2013-04-23 13:27:00,42.3,29.4,30.38,East,92,12.0,12.0,60,0.00,OVC,FEW,0.00,545.0,WeatherDisplay:10.37,2013-04-23 17:27:00,
2013-04-23 13:32:00,42.4,30.3,30.39,ESE,113,16.0,16.0,62,0.00,OVC,FEW,0.00,452.0,WeatherDisplay:10.37,2013-04-23 17:32:00,
2013-04-23 13:37:00,42.6,30.5,30.38,SSE,151,16.1,16.1,62,0.00,OVC,FEW,0.00,559.0,WeatherDisplay:10.37,2013-04-23 17:37:00,
2013-04-23 13:42:00,42.4,30.7,30.38,SSE,148,19.6,19.6,63,0.00,OVC,FEW,0.00,559.0,WeatherDisplay:10.37,2013-04-23 17:42:00,
2013-04-23 13:47:00,42.6,30.9,30.38,SE,142,14.0,14.0,63,0.00,OVC,FEW,0.00,494.0,WeatherDisplay:10.37,2013-04-23 17:47:00,
2013-04-23 13:52:00,42.3,31.0,30.38,SE,126,12.0,12.0,64,0.00,OVC,FEW,0.00,436.0,WeatherDisplay:10.37,2013-04-23 17:52:00,
2013-04-23 13:57:00,42.2,31.3,30.38,SSW,193,7.0,7.0,65,0.00,OVC,FEW,0.00,376.0,WeatherDisplay:10.37,2013-04-23 17:57:00,
2013-04-23 14:02:00,42.3,31.4,30.38,SSE,148,10.4,10.4,65,0.00,OVC,FEW,0.00,418.0,WeatherDisplay:10.37,2013-04-23 18:02:00,
2013-04-23 14:07:00,42.3,31.4,30.37,SE,131,10.4,10.4,65,0.00,OVC,FEW,0.00,464.0,WeatherDisplay:10.37,2013-04-23 18:07:00,
2013-04-23 14:12:00,42.5,31.9,30.37,SSE,158,19.6,19.6,66,0.00,OVC,FEW,0.00,443.0,WeatherDisplay:10.37,2013-04-23 18:12:00,
2013-04-23 14:17:00,42.4,31.5,30.37,SE,132,16.1,16.1,65,0.00,OVC,FEW,0.00,380.0,WeatherDisplay:10.37,2013-04-23 18:17:00,
2013-04-23 14:22:00,42.2,32.0,30.36,SE,144,17.3,17.3,67,0.00,OVC,FEW,0.00,399.0,WeatherDisplay:10.37,2013-04-23 18:22:00,
2013-04-23 14:27:00,41.9,32.5,30.36,SE,141,15.0,15.0,69,0.00,OVC,FEW,0.00,381.0,WeatherDisplay:10.37,2013-04-23 18:27:00,
2013-04-23 14:32:00,42.0,32.2,30.36,SSE,150,15.0,15.0,68,0.00,OVC,FEW,0.00,392.0,WeatherDisplay:10.37,2013-04-23 18:32:00,
2013-04-23 14:37:00,42.1,32.3,30.36,SE,126,13.0,13.0,68,0.00,OVC,FEW,0.00,452.0,WeatherDisplay:10.37,2013-04-23 18:37:00,
2013-04-23 14:42:00,42.2,32.8,30.36,SSE,154,15.0,15.0,69,0.00,OVC,FEW,0.00,429.0,WeatherDisplay:10.37,2013-04-23 18:42:00,
2013-04-23 14:47:00,42.2,32.4,30.36,SSE,158,10.4,10.4,68,0.00,OVC,FEW,0.00,469.0,WeatherDisplay:10.37,2013-04-23 18:47:00,
2013-04-23 14:52:00,41.9,32.1,30.35,SE,146,15.0,15.0,68,0.00,OVC,FEW,0.00,457.0,WeatherDisplay:10.37,2013-04-23 18:52:00,
2013-04-23 14:57:00,42.0,32.6,30.35,SSE,158,10.0,10.0,69,0.00,OVC,FEW,0.00,446.0,WeatherDisplay:10.37,2013-04-23 18:57:00,
2013-04-23 15:02:00,42.2,32.4,30.35,SE,138,12.0,12.0,68,0.00,OVC,FEW,0.00,434.0,WeatherDisplay:10.37,2013-04-23 19:02:00,
2013-04-23 15:07:00,42.3,33.2,30.35,SSW,202,11.5,11.5,70,0.00,OVC,FEW,0.00,446.0,WeatherDisplay:10.37,2013-04-23 19:07:00,
2013-04-23 15:12:00,42.5,33.4,30.35,SSE,156,19.6,19.6,70,0.00,OVC,FEW,0.00,610.0,WeatherDisplay:10.37,2013-04-23 19:12:00,
2013-04-23 15:17:00,42.6,33.5,30.35,SE,142,18.4,18.4,70,0.00,OVC,FEW,0.00,487.0,WeatherDisplay:10.37,2013-04-23 19:17:00,
2013-04-23 15:22:00,42.7,33.6,30.35,South,170,11.5,11.5,70,0.00,OVC,FEW,0.00,703.0,WeatherDisplay:10.37,2013-04-23 19:22:00,
2013-04-23 15:29:00,43.0,33.2,30.35,ESE,114,14.0,14.0,68,0.00,OVC,FEW,0.00,554.0,WeatherDisplay:10.37,2013-04-23 19:29:00,
2013-04-23 15:34:00,42.7,33.2,30.35,SE,143,11.5,11.5,69,0.00,OVC,FEW,0.00,487.0,WeatherDisplay:10.37,2013-04-23 19:34:00,
2013-04-23 15:39:00,42.6,33.5,30.34,SE,146,10.4,10.4,70,0.00,OVC,FEW,0.00,520.0,WeatherDisplay:10.37,2013-04-23 19:39:00,
2013-04-23 15:44:00,42.8,33.3,30.34,SSE,161,13.0,13.0,69,0.00,OVC,FEW,0.00,575.0,WeatherDisplay:10.37,2013-04-23 19:44:00,
2013-04-23 15:49:00,42.4,33.3,30.34,ESE,123,13.0,13.0,70,0.00,OVC,FEW,0.00,545.0,WeatherDisplay:10.37,2013-04-23 19:49:00,
2013-04-23 15:54:00,42.2,33.1,30.34,ESE,109,15.0,15.0,70,0.00,OVC,FEW,0.00,517.0,WeatherDisplay:10.37,2013-04-23 19:54:00,
2013-04-23 15:59:00,42.1,33.4,30.34,SE,132,11.5,11.5,71,0.00,OVC,FEW,0.00,503.0,WeatherDisplay:10.37,2013-04-23 19:59:00,
2013-04-23 16:04:00,42.3,33.6,30.34,East,82,11.5,11.5,71,0.00,SCT,FEW,0.00,480.0,WeatherDisplay:10.37,2013-04-23 20:04:00,
2013-04-23 16:09:00,42.3,33.6,30.34,ESE,117,12.0,12.0,71,0.00,SCT,FEW,0.00,439.0,WeatherDisplay:10.37,2013-04-23 20:09:00,
2013-04-23 16:14:00,41.9,33.2,30.34,SE,146,10.4,10.4,71,0.00,SCT,FEW,0.00,396.0,WeatherDisplay:10.37,2013-04-23 20:14:00,
2013-04-23 16:19:00,41.7,33.3,30.34,SSE,161,10.4,10.4,72,0.00,SCT,FEW,0.00,376.0,WeatherDisplay:10.37,2013-04-23 20:19:00,
2013-04-23 16:24:00,41.7,33.0,30.33,ESE,103,11.0,11.0,71,0.00,SCT,FEW,0.00,369.0,WeatherDisplay:10.37,2013-04-23 20:24:00,
2013-04-23 16:29:00,41.8,33.1,30.33,East,98,8.1,8.1,71,0.00,SCT,FEW,0.00,360.0,WeatherDisplay:10.37,2013-04-23 20:29:00,
2013-04-23 16:34:00,41.9,33.2,30.33,ESE,111,9.2,9.2,71,0.00,SCT,FEW,0.00,348.0,WeatherDisplay:10.37,2013-04-23 20:34:00,
2013-04-23 16:39:00,42.0,33.3,30.33,SSE,159,13.8,13.8,71,0.00,SCT,FEW,0.00,367.0,WeatherDisplay:10.37,2013-04-23 20:39:00,
2013-04-23 16:44:00,42.3,33.9,30.33,SE,141,10.0,10.0,72,0.00,SCT,FEW,0.00,343.0,WeatherDisplay:10.37,2013-04-23 20:44:00,
2013-04-23 16:49:00,42.3,33.2,30.33,SE,130,14.0,14.0,70,0.00,SCT,FEW,0.00,313.0,WeatherDisplay:10.37,2013-04-23 20:49:00,
2013-04-23 16:54:00,42.1,33.4,30.32,SE,142,10.4,10.4,71,0.00,SCT,FEW,0.00,299.0,WeatherDisplay:10.37,2013-04-23 20:54:00,
2013-04-23 16:59:00,42.0,32.9,30.33,SE,124,15.0,15.0,70,0.00,SCT,FEW,0.00,267.0,WeatherDisplay:10.37,2013-04-23 20:59:00,
2013-04-23 17:04:00,41.9,32.8,30.33,SSE,149,13.8,13.8,70,0.00,SCT,FEW,0.00,267.0,WeatherDisplay:10.37,2013-04-23 21:04:00,
2013-04-23 17:09:00,41.7,33.0,30.33,SE,146,19.6,19.6,71,0.00,SCT,FEW,0.00,255.0,WeatherDisplay:10.37,2013-04-23 21:09:00,
2013-04-23 17:14:00,41.6,32.9,30.32,SE,134,13.8,13.8,71,0.00,SCT,FEW,0.00,246.0,WeatherDisplay:10.37,2013-04-23 21:14:00,
2013-04-23 17:19:00,41.6,32.5,30.32,ESE,113,12.7,12.7,70,0.00,SCT,FEW,0.00,248.0,WeatherDisplay:10.37,2013-04-23 21:19:00,
2013-04-23 17:24:00,41.6,32.5,30.32,SSE,159,13.0,13.0,70,0.00,SCT,FEW,0.00,197.0,WeatherDisplay:10.37,2013-04-23 21:24:00,
2013-04-23 17:29:00,41.6,32.9,30.32,SE,146,14.0,14.0,71,0.00,SCT,FEW,0.00,188.0,WeatherDisplay:10.37,2013-04-23 21:29:00,
2013-04-23 17:34:00,41.5,32.8,30.32,SSE,153,11.5,11.5,71,0.00,SCT,FEW,0.00,176.0,WeatherDisplay:10.37,2013-04-23 21:34:00,
2013-04-23 17:39:00,41.3,33.0,30.32,SSE,148,9.0,9.0,72,0.00,SCT,FEW,0.00,172.0,WeatherDisplay:10.37,2013-04-23 21:39:00,
2013-04-23 17:44:00,41.3,33.0,30.31,SE,142,10.4,10.4,72,0.00,SCT,FEW,0.00,162.0,WeatherDisplay:10.37,2013-04-23 21:44:00,
2013-04-23 17:49:00,41.1,32.8,30.31,East,96,10.4,10.4,72,0.00,SCT,FEW,0.00,144.0,WeatherDisplay:10.37,2013-04-23 21:49:00,
2013-04-23 17:54:00,41.2,32.9,30.31,SSE,156,11.5,11.5,72,0.00,SCT,FEW,0.00,134.0,WeatherDisplay:10.37,2013-04-23 21:54:00,
2013-04-23 17:59:00,40.9,32.6,30.30,SE,145,10.4,10.4,72,0.00,SCT,FEW,0.00,130.0,WeatherDisplay:10.37,2013-04-23 21:59:00,
2013-04-23 18:04:00,40.8,32.5,30.30,SE,145,12.0,12.0,72,0.00,OVC,FEW,0.00,121.0,WeatherDisplay:10.37,2013-04-23 22:04:00,
2013-04-23 18:09:00,40.6,32.6,30.31,SSE,153,8.1,8.1,73,0.00,OVC,FEW,0.00,114.0,WeatherDisplay:10.37,2013-04-23 22:09:00,
2013-04-23 18:14:00,40.7,32.7,30.31,SE,129,11.5,11.5,73,0.00,OVC,FEW,0.00,109.0,WeatherDisplay:10.37,2013-04-23 22:14:00,
2013-04-23 18:19:00,40.6,32.6,30.31,SSE,165,12.7,12.7,73,0.00,OVC,FEW,0.00,104.0,WeatherDisplay:10.37,2013-04-23 22:19:00,
2013-04-23 18:24:00,40.4,32.8,30.30,SE,144,5.0,5.0,74,0.00,OVC,FEW,0.00,95.0,WeatherDisplay:10.37,2013-04-23 22:24:00,
2013-04-23 18:29:00,40.3,32.7,30.30,SSE,149,10.4,10.4,74,0.00,OVC,FEW,0.00,84.0,WeatherDisplay:10.37,2013-04-23 22:29:00,
2013-04-23 18:34:00,40.3,32.7,30.29,South,169,7.0,7.0,74,0.00,OVC,FEW,0.00,76.0,WeatherDisplay:10.37,2013-04-23 22:34:00,
2013-04-23 18:39:00,40.3,32.7,30.29,SE,146,15.0,15.0,74,0.00,OVC,FEW,0.00,65.0,WeatherDisplay:10.37,2013-04-23 22:39:00,
2013-04-23 18:44:00,40.2,32.6,30.29,SE,136,16.1,16.1,74,0.00,OVC,FEW,0.00,58.0,WeatherDisplay:10.37,2013-04-23 22:44:00,
2013-04-23 18:49:00,40.1,32.8,30.29,ESE,123,14.0,14.0,75,0.00,OVC,FEW,0.00,53.0,WeatherDisplay:10.37,2013-04-23 22:49:00,
2013-04-23 18:54:00,40.1,32.8,30.29,SE,135,10.4,10.4,75,0.00,OVC,FEW,0.00,49.0,WeatherDisplay:10.37,2013-04-23 22:54:00,
2013-04-23 18:59:00,40.0,32.7,30.29,ENE,64,12.0,12.0,75,0.00,OVC,FEW,0.00,46.0,WeatherDisplay:10.37,2013-04-23 22:59:00,
2013-04-23 19:04:00,39.9,32.6,30.29,SSE,161,6.9,6.9,75,0.00,BKN,FEW,0.00,44.0,WeatherDisplay:10.37,2013-04-23 23:04:00,
2013-04-23 19:09:00,39.8,32.8,30.29,SSE,163,14.0,14.0,76,0.00,BKN,FEW,0.00,40.0,WeatherDisplay:10.37,2013-04-23 23:09:00,
2013-04-23 19:14:00,39.6,32.7,30.29,ESE,116,5.0,5.0,76,0.00,BKN,FEW,0.00,35.0,WeatherDisplay:10.37,2013-04-23 23:14:00,
2013-04-23 19:19:00,39.5,32.9,30.29,SSE,158,6.0,6.0,77,0.00,BKN,FEW,0.00,28.0,WeatherDisplay:10.37,2013-04-23 23:19:00,
2013-04-23 19:24:00,39.5,32.9,30.29,SSE,159,5.8,5.8,77,0.00,BKN,FEW,0.00,21.0,WeatherDisplay:10.37,2013-04-23 23:24:00,
2013-04-23 19:29:00,39.4,32.8,30.29,SE,130,7.0,7.0,77,0.00,BKN,FEW,0.00,14.0,WeatherDisplay:10.37,2013-04-23 23:29:00,
2013-04-23 19:34:00,39.4,32.8,30.29,South,177,10.0,10.0,77,0.00,BKN,FEW,0.00,11.0,WeatherDisplay:10.37,2013-04-23 23:34:00,
2013-04-23 19:39:00,39.2,32.9,30.29,SE,143,10.4,10.4,78,0.00,BKN,FEW,0.00,7.0,WeatherDisplay:10.37,2013-04-23 23:39:00,
2013-04-23 19:44:00,39.1,32.8,30.28,SSE,151,6.9,6.9,78,0.00,BKN,FEW,0.00,0.0,WeatherDisplay:10.37,2013-04-23 23:44:00,
2013-04-23 19:49:00,39.1,32.8,30.29,SE,146,6.0,6.0,78,0.00,BKN,FEW,0.00,0.0,WeatherDisplay:10.37,2013-04-23 23:49:00,
2013-04-23 19:54:00,39.1,32.8,30.28,SE,135,8.1,8.1,78,0.00,BKN,FEW,0.00,0.0,WeatherDisplay:10.37,2013-04-23 23:54:00,
2013-04-23 19:59:00,39.0,32.7,30.28,SSE,164,8.1,8.1,78,0.00,BKN,FEW,0.00,0.0,WeatherDisplay:10.37,2013-04-23 23:59:00,
2013-04-23 20:04:00,39.0,32.7,30.28,ESE,123,8.0,8.0,78,0.00,FEW,,0.00,0.0,WeatherDisplay:10.37,2013-04-24 00:04:00,
2013-04-23 20:09:00,39.1,32.8,30.28,SE,144,9.2,9.2,78,0.00,FEW,,0.00,0.0,WeatherDisplay:10.37,2013-04-24 00:09:00,
2013-04-23 20:14:00,39.0,33.0,30.28,SE,128,9.2,9.2,79,0.00,FEW,,0.00,0.0,WeatherDisplay:10.37,2013-04-24 00:14:00,
2013-04-23 20:19:00,38.9,32.9,30.28,SSE,154,5.8,5.8,79,0.00,FEW,,0.00,0.0,WeatherDisplay:10.37,2013-04-24 00:19:00,
2013-04-23 20:24:00,38.7,32.7,30.28,SE,146,8.1,8.1,79,0.00,FEW,,0.00,0.0,WeatherDisplay:10.37,2013-04-24 00:24:00,
2013-04-23 20:29:00,38.6,33.0,30.28,South,174,6.0,6.0,80,0.00,FEW,,0.00,0.0,WeatherDisplay:10.37,2013-04-24 00:29:00,
2013-04-23 20:34:00,38.6,33.0,30.28,SSE,153,9.2,9.2,80,0.00,FEW,,0.00,0.0,WeatherDisplay:10.37,2013-04-24 00:34:00,
2013-04-23 20:39:00,38.6,33.0,30.28,SE,130,5.0,5.0,80,0.00,FEW,,0.00,0.0,WeatherDisplay:10.37,2013-04-24 00:39:00,
2013-04-23 20:44:00,38.5,32.9,30.27,SE,145,4.0,4.0,80,0.00,FEW,,0.00,0.0,WeatherDisplay:10.37,2013-04-24 00:44:00,
2013-04-23 20:49:00,38.4,33.1,30.27,SSE,149,12.7,12.7,81,0.00,FEW,,0.00,0.0,WeatherDisplay:10.37,2013-04-24 00:49:00,
2013-04-23 20:54:00,38.4,33.1,30.27,SSE,151,9.2,9.2,81,0.00,FEW,,0.00,0.0,WeatherDisplay:10.37,2013-04-24 00:54:00,
2013-04-23 20:59:00,38.3,33.0,30.27,ESE,113,13.0,13.0,81,0.00,FEW,,0.00,0.0,WeatherDisplay:10.37,2013-04-24 00:59:00,
2013-04-23 21:04:00,38.3,33.0,30.27,SSE,155,7.0,7.0,81,0.00,SCT,FEW,0.00,0.0,WeatherDisplay:10.37,2013-04-24 01:04:00,
2013-04-23 21:09:00,38.3,33.0,30.27,SE,138,6.9,6.9,81,0.00,SCT,FEW,0.00,0.0,WeatherDisplay:10.37,2013-04-24 01:09:00,
2013-04-23 21:14:00,38.2,32.9,30.27,SSE,166,3.5,3.5,81,0.00,SCT,FEW,0.00,0.0,WeatherDisplay:10.37,2013-04-24 01:14:00,
2013-04-23 21:19:00,38.2,33.2,30.27,South,169,6.9,6.9,82,0.00,SCT,FEW,0.00,0.0,WeatherDisplay:10.37,2013-04-24 01:19:00,
2013-04-23 21:24:00,38.3,33.3,30.27,South,176,10.4,10.4,82,0.00,SCT,FEW,0.00,0.0,WeatherDisplay:10.37,2013-04-24 01:24:00,
2013-04-23 21:29:00,38.3,33.3,30.27,SE,146,5.0,5.0,82,0.00,SCT,FEW,0.00,0.0,WeatherDisplay:10.37,2013-04-24 01:29:00,
2013-04-23 21:34:00,38.2,33.2,30.27,South,190,3.5,3.5,82,0.00,SCT,FEW,0.00,0.0,WeatherDisplay:10.37,2013-04-24 01:34:00,
2013-04-23 21:39:00,38.2,33.2,30.27,South,182,5.0,5.0,82,0.00,SCT,FEW,0.00,0.0,WeatherDisplay:10.37,2013-04-24 01:39:00,
2013-04-23 21:44:00,38.1,33.4,30.27,SSE,152,4.0,4.0,83,0.00,SCT,FEW,0.00,0.0,WeatherDisplay:10.37,2013-04-24 01:44:00,
2013-04-23 21:49:00,38.1,33.4,30.28,SSE,164,5.0,5.0,83,0.00,SCT,FEW,0.00,0.0,WeatherDisplay:10.37,2013-04-24 01:49:00,
2013-04-23 21:54:00,37.9,33.2,30.28,SSE,151,7.0,7.0,83,0.00,SCT,FEW,0.00,0.0,WeatherDisplay:10.37,2013-04-24 01:54:00,
2013-04-23 21:59:00,37.8,33.4,30.27,South,174,8.1,8.1,84,0.00,SCT,FEW,0.00,0.0,WeatherDisplay:10.37,2013-04-24 01:59:00,
2013-04-23 22:04:00,37.7,33.3,30.27,SSE,153,4.0,4.0,84,0.00,BKN,FEW,0.00,0.0,WeatherDisplay:10.37,2013-04-24 02:04:00,
2013-04-23 22:09:00,37.6,33.2,30.27,SE,126,7.0,7.0,84,0.00,BKN,FEW,0.00,0.0,WeatherDisplay:10.37,2013-04-24 02:09:00,
2013-04-23 22:15:00,37.6,33.5,30.27,SSE,159,5.0,5.0,85,0.00,BKN,FEW,0.00,0.0,WeatherDisplay:10.37,2013-04-24 02:15:00,
2013-04-23 22:20:00,37.4,33.3,30.27,SE,145,3.5,3.5,85,0.00,OVC,FEW,0.00,0.0,WeatherDisplay:10.37,2013-04-24 02:20:00,
2013-04-23 22:25:00,37.3,33.2,30.26,SSE,153,4.6,4.6,85,0.00,OVC,FEW,0.00,0.0,WeatherDisplay:10.37,2013-04-24 02:25:00,
2013-04-23 22:30:00,37.3,33.5,30.26,SE,146,5.0,5.0,86,0.00,OVC,FEW,0.00,0.0,WeatherDisplay:10.37,2013-04-24 02:30:00,
2013-04-23 22:35:00,37.2,33.4,30.26,SE,144,6.0,6.0,86,0.00,OVC,FEW,0.00,0.0,WeatherDisplay:10.37,2013-04-24 02:35:00,
2013-04-23 22:40:00,37.0,33.2,30.25,East,94,5.0,5.0,86,0.00,OVC,FEW,0.00,0.0,WeatherDisplay:10.37,2013-04-24 02:40:00,
2013-04-23 22:45:00,36.9,33.1,30.25,SE,138,6.0,6.0,86,0.00,OVC,FEW,0.00,0.0,WeatherDisplay:10.37,2013-04-24 02:45:00,
2013-04-23 22:50:00,36.9,33.4,30.24,SSE,153,9.2,9.2,87,0.00,OVC,FEW,0.00,0.0,WeatherDisplay:10.37,2013-04-24 02:50:00,
2013-04-23 22:55:00,36.9,33.4,30.23,ESE,107,9.0,9.0,87,0.00,OVC,FEW,0.00,0.0,WeatherDisplay:10.37,2013-04-24 02:55:00,
2013-04-23 23:00:00,36.8,33.6,30.23,East,98,11.5,11.5,88,0.00,OVC,FEW,0.00,0.0,WeatherDisplay:10.37,2013-04-24 03:00:00,
2013-04-23 23:05:00,36.8,33.6,30.22,SE,128,6.0,6.0,88,0.00,BKN,FEW,0.00,0.0,WeatherDisplay:10.37,2013-04-24 03:05:00,
2013-04-23 23:10:00,36.7,33.8,30.21,ESE,108,14.0,14.0,89,0.00,BKN,FEW,0.00,0.0,WeatherDisplay:10.37,2013-04-24 03:10:00,
2013-04-23 23:15:00,36.6,33.7,30.22,SE,140,7.0,7.0,89,0.00,BKN,FEW,0.00,0.0,WeatherDisplay:10.37,2013-04-24 03:15:00,
2013-04-23 23:20:00,36.5,33.6,30.21,South,170,9.2,9.2,89,0.00,SCT,FEW,0.00,0.0,WeatherDisplay:10.37,2013-04-24 03:20:00,
2013-04-23 23:25:00,36.4,33.7,30.20,South,181,9.0,9.0,90,0.00,SCT,FEW,0.00,0.0,WeatherDisplay:10.37,2013-04-24 03:25:00,
2013-04-23 23:30:00,36.4,33.7,30.20,ESE,113,16.0,16.0,90,0.00,SCT,FEW,0.00,0.0,WeatherDisplay:10.37,2013-04-24 03:30:00,
2013-04-23 23:35:00,36.3,33.9,30.20,ESE,107,10.4,10.4,91,0.00,SCT,FEW,0.00,0.0,WeatherDisplay:10.37,2013-04-24 03:35:00,
2013-04-23 23:40:00,36.3,33.9,30.20,ESE,109,5.0,5.0,91,0.00,SCT,FEW,0.00,0.0,WeatherDisplay:10.37,2013-04-24 03:40:00,
2013-04-23 23:45:00,36.1,33.7,30.20,SE,146,9.2,9.2,91,0.00,SCT,FEW,0.00,0.0,WeatherDisplay:10.37,2013-04-24 03:45:00,
2013-04-23 23:51:00,36.2,34.1,30.19,ESE,121,3.0,12.0,92,0.00,SCT,FEW,0.00,0.0,WeatherDisplay:10.37,2013-04-24 03:51:00,
2013-04-23 23:56:00,36.1,33.7,30.19,SE,146,6.0,6.0,91,0.00,SCT,FEW,0.00,0.0,WeatherDisplay:10.37,2013-04-24 03:56:00,